Location: eljas
(40.1958°N, 6.8661°W)
Time: 12:30:42
(UTC+02:00)

Amateur Radio Satellites - All Passes

Search period start: 02 September 2015 12:00
Search period end: 03 September 2015 12:00
Location: eljas, 40.1958°N, 6.8661°W

Satellite Date Start Highest point End Downlink Frequencies (MHz)
Time Altitude Azimuth
CUSAT 1 02 Sep 12:02:30 12:10:03 49° 74° (ENE) 12:17:58 437.405
AAUSAT CUBESAT 2 02 Sep 12:04:10 12:08:02 39° 287° (WNW) 12:11:52 437.432
AUBIESAT-1 02 Sep 12:10:28 12:15:13 89° 73° (ENE) 12:19:54 437.475
Cosmos 2504 02 Sep 12:14:42 12:23:14 77° 81° (E) 12:31:12 435.465 / 435.565
M-CUBED/EXP-1 PRIME 02 Sep 12:17:09 12:21:56 68° 254° (WSW) 12:26:40 437.505
ANTELSAT 02 Sep 12:17:15 12:21:57 83° 257° (WSW) 12:26:42 437.575/2403.000
DELFI C3 02 Sep 12:18:12 12:22:13 80° 100° (E) 12:26:11 145.870
GOMX 1 02 Sep 12:19:36 12:21:35 12° 299° (WNW) 12:23:15 467.674
SO-50 02 Sep 12:20:38 12:25:06 35° 246° (WSW) 12:29:24 436.795
POLYITAN 1 02 Sep 12:25:21 12:29:22 42° 72° (ENE) 12:33:28 437.675
DOVE 4 02 Sep 12:25:32 12:28:34 15° 297° (WNW) 12:31:20 437.250
DUCHIFAT 1 02 Sep 12:26:37 12:30:34 40° 72° (ENE) 12:34:35 145.980
POPSAT HIP 1 02 Sep 12:27:22 12:31:23 43° 73° (ENE) 12:35:29 437.405
BUGSAT 1 02 Sep 12:28:40 12:32:01 26° 70° (ENE) 12:35:30 437.445
ZACube-1 02 Sep 12:34:21 12:38:51 70° 284° (WNW) 12:43:11 437.345
PCSat 02 Sep 12:34:33 12:40:00 75° 60° (ENE) 12:45:25 145.827
VELOX 1 02 Sep 12:39:05 12:41:56 17° 91° (E) 12:44:56 145.980
FUNcube-1 02 Sep 12:39:07 12:43:34 64° 286° (WNW) 12:47:52 145.935
DANDE 02 Sep 12:40:08 12:47:46 62° 77° (ENE) 12:56:14 436.750
CUBEBUG 2 02 Sep 12:40:39 12:44:56 36° 289° (WNW) 12:49:05 437.445
PHONESAT 2.4 02 Sep 12:43:13 12:45:27 16° 211° (SSW) 12:47:39 2401.200-2431.200
NANOSAT C BR1 02 Sep 12:44:23 12:48:34 68° 76° (ENE) 12:52:50 145.865
QB50P2 02 Sep 12:44:29 12:48:43 72° 77° (ENE) 12:53:00 145.880/145.840
UWE-3 02 Sep 12:44:35 12:48:54 41° 288° (WNW) 12:53:05 435.000/436.395/437.385
50 SAT 02 Sep 12:47:37 12:50:42 23° 94° (E) 12:53:50 437.505
ISS 02 Sep 12:49:47 12:51:17 12° 351° (N) 12:52:45 145.825
QB50P1 02 Sep 12:58:38 13:02:52 81° 257° (WSW) 13:07:11 145.935-145.965
CINEMA 3 02 Sep 13:01:20 13:03:45 13° 297° (WNW) 13:05:53 145.822/145.860
HUMSAT D 02 Sep 13:07:41 13:11:56 76° 284° (WNW) 13:16:05 437.325/437.525
UNISAT 6 02 Sep 13:09:17 13:13:10 24° 267° (W) 13:16:58 437.425
DX 1 02 Sep 13:18:35 13:22:59 74° 102° (ESE) 13:27:22 434.975-435.025
Oscar 11 02 Sep 13:26:00 13:28:14 14° 295° (WNW) 13:30:17 145.826/435.025
UKube-1 02 Sep 13:28:55 13:33:17 86° 101° (E) 13:37:38 .
SPROUT 02 Sep 13:34:21 13:36:04 12° 89° (E) 13:38:02 437.525
ESTCUBE 1 02 Sep 13:38:36 13:43:03 58° 100° (E) 13:47:30 437.505/2401.250
TIGRISAT 02 Sep 13:39:09 13:41:29 13° 272° (W) 13:43:34 435.000
GONETS M04 02 Sep 13:40:45 13:44:33 14° 56° (NE) 13:48:59
Cosmos 2491 02 Sep 13:41:31 13:42:26 10° 308° (NW) 13:42:35 435.465 / 435.565
CUBEBUG 1 02 Sep 13:42:35 13:46:55 52° 100° (E) 13:51:15 437.445
CUSAT 1 02 Sep 13:45:16 13:52:31 39° 270° (W) 13:59:50 437.405
AISAT 02 Sep 13:46:29 13:51:00 84° 284° (WNW) 13:55:29 437.250
POLYITAN 1 02 Sep 14:02:47 14:05:31 16° 269° (W) 14:08:05 437.675
DUCHIFAT 1 02 Sep 14:03:50 14:06:35 16° 269° (W) 14:09:12 145.980
BUGSAT 1 02 Sep 14:04:07 14:07:27 24° 266° (W) 14:10:46 437.445
POPSAT HIP 1 02 Sep 14:04:54 14:07:31 15° 269° (W) 14:10:00 437.405
Cosmos 2504 02 Sep 14:08:35 14:14:32 21° 280° (W) 14:19:53 435.465 / 435.565
VELOX 1 02 Sep 14:14:29 14:18:43 43° 288° (WNW) 14:22:57 145.980
PCSat 02 Sep 14:19:59 14:22:51 14° 255° (WSW) 14:25:25 145.827
50 SAT 02 Sep 14:22:02 14:25:10 23° 290° (WNW) 14:28:11 437.505
DANDE 02 Sep 14:23:58 14:30:38 30° 271° (W) 14:37:32 436.750
Oscar 19 02 Sep 14:24:31 14:29:10 36° 69° (ENE) 14:33:54 437.125/150
ISS 02 Sep 14:27:08 14:28:46 13° 11° (N) 14:30:26 145.825
TISAT 1 02 Sep 14:30:52 14:34:37 30° 96° (E) 14:38:23 437.305
DX 1 02 Sep 14:57:24 14:58:41 11° 297° (WNW) 14:59:43 434.975-435.025
SPROUT 02 Sep 15:08:18 15:12:34 55° 286° (WNW) 15:16:48 437.525
ESTCUBE 1 02 Sep 15:17:03 15:19:29 14° 295° (WNW) 15:21:44 437.505/2401.250
Gurwin Techsat 1B 02 Sep 15:17:36 15:22:21 35° 69° (ENE) 15:27:11 435.225
CUBEBUG 1 02 Sep 15:20:17 15:22:53 15° 294° (WNW) 15:25:18 437.445
Cosmos 2499 02 Sep 15:25:02 15:29:58 17° 58° (ENE) 15:35:11 435.465 / 435.565
ITAMSAT 1 02 Sep 15:26:46 15:31:23 35° 69° (ENE) 15:36:05 435.822/435.867
ITUPSAT 1 02 Sep 15:30:30 15:34:07 22° 93° (E) 15:37:51 437.325
AO-7 02 Sep 15:31:17 15:36:22 19° 52° (NE) 15:41:48 29.400- 29.500
JAS-2 02 Sep 15:33:44 15:40:26 35° 65° (ENE) 15:47:21 435.910
GONETS M04 02 Sep 15:34:38 15:43:27 71° 80° (E) 15:52:16
BEESAT 3 02 Sep 15:50:20 15:53:57 33° 115° (ESE) 15:57:39 437.485
BEESAT 02 Sep 16:02:01 16:06:37 47° 99° (E) 16:11:12 436.000
ISS 02 Sep 16:02:48 16:05:53 39° 31° (NNE) 16:08:57 145.825
Oscar 19 02 Sep 16:04:13 16:08:36 27° 266° (W) 16:12:56 437.125/150
BEESAT 2 02 Sep 16:04:40 16:08:22 35° 116° (ESE) 16:12:09 435.950
TISAT 1 02 Sep 16:06:49 16:10:14 23° 292° (WNW) 16:13:34 437.305
SWISSCUBE 02 Sep 16:28:06 16:32:53 84° 284° (WNW) 16:37:39 437.505
RS-15 02 Sep 16:45:42 16:55:15 39° 108° (ESE) 17:05:20 29.354- 29.394
KKS-1 02 Sep 16:48:07 16:51:39 23° 94° (E) 16:55:15 437.445
AIST 2 02 Sep 16:52:20 16:55:36 23° 113° (ESE) 16:59:00 435.215
HORYU 2 02 Sep 16:57:09 17:01:06 31° 70° (ENE) 17:05:06 437.375
Gurwin Techsat 1B 02 Sep 16:57:50 17:02:24 28° 266° (W) 17:06:54 435.225
ITAMSAT 1 02 Sep 17:06:33 17:10:57 27° 265° (W) 17:15:18 435.822/435.867
ITUPSAT 1 02 Sep 17:07:45 17:12:10 37° 289° (WNW) 17:16:31 437.325
Cosmos 2499 02 Sep 17:16:08 17:24:50 83° 81° (E) 17:32:53 435.465 / 435.565
JAS-2 02 Sep 17:17:39 17:25:08 54° 262° (W) 17:32:48 435.910
AO-7 02 Sep 17:19:43 17:28:04 80° 71° (ENE) 17:36:26 29.400- 29.500
BEESAT 3 02 Sep 17:28:34 17:31:56 24° 312° (NW) 17:35:15 437.485
GONETS M04 02 Sep 17:32:52 17:39:34 24° 278° (W) 17:45:55
ISS 02 Sep 17:39:32 17:42:09 22° 226° (SW) 17:44:44 145.825
BEESAT 02 Sep 17:40:48 17:44:08 19° 295° (WNW) 17:47:18 436.000
BEESAT 2 02 Sep 17:43:10 17:46:30 23° 313° (NW) 17:49:48 435.950
STARS 02 Sep 18:01:03 18:05:32 85° 103° (ESE) 18:09:58 437.465
KKS-1 02 Sep 18:24:18 18:28:20 32° 290° (WNW) 18:32:18 437.445
AIST 2 02 Sep 18:30:06 18:34:01 35° 309° (NW) 18:37:55 435.215
HORYU 2 02 Sep 18:34:05 18:37:46 24° 266° (W) 18:41:21 437.375
MOZHAYETS 4 02 Sep 18:48:12 18:52:45 67° 101° (ESE) 18:57:17
RS-15 02 Sep 18:56:23 19:07:12 61° 310° (NW) 19:18:28 29.354- 29.394
Cubesat XI-IV 02 Sep 18:58:17 19:02:32 26° 66° (ENE) 19:06:55 437.490
Cosmos 2499 02 Sep 19:11:16 19:16:57 19° 280° (W) 19:21:58 435.465 / 435.565
AO-7 02 Sep 19:15:45 19:21:51 21° 270° (W) 19:27:32 29.400- 29.500
CUTE-I 02 Sep 19:41:34 19:46:47 63° 74° (ENE) 19:52:04 437.470
O/OREOS (USA 219) 02 Sep 19:43:33 19:47:12 25° 103° (ESE) 19:50:59 437.305
Cosmos 2491 02 Sep 19:51:19 19:55:00 14° 56° (NE) 19:59:20 435.465 / 435.565
BRITE-PL 02 Sep 19:52:10 19:53:28 11° 61° (ENE) 19:55:02 437.365/2234.400
GOMX 1 02 Sep 20:12:15 20:13:30 11° 61° (ENE) 20:15:02 467.674
MOZHAYETS 4 02 Sep 20:27:27 20:29:28 13° 296° (WNW) 20:31:17
HO-68 02 Sep 20:37:14 20:42:15 22° 59° (ENE) 20:47:32 435.675
Cubesat XI-IV 02 Sep 20:37:27 20:42:28 40° 262° (W) 20:47:27 437.490
CUBESAT XI-V 02 Sep 20:46:44 20:51:24 79° 284° (WNW) 20:56:03 437.345
AIST 1 02 Sep 20:50:47 20:55:08 76° 82° (E) 20:59:29
COMPASS 1 02 Sep 21:13:21 21:14:08 11° 64° (ENE) 21:15:09 437.405
RS-15 02 Sep 21:14:08 21:22:48 24° 340° (NNW) 21:31:32 29.354- 29.394
STRAND 1 02 Sep 21:19:11 21:24:11 54° 100° (E) 21:29:11 437.568
AAUSAT CUBESAT 2 02 Sep 21:21:37 21:22:41 11° 65° (ENE) 21:23:59 437.432
O/OREOS (USA 219) 02 Sep 21:22:28 21:26:31 31° 300° (WNW) 21:30:35 437.305
CUTE-I 02 Sep 21:24:10 21:27:24 16° 271° (W) 21:30:24 437.470
BRITE-PL 02 Sep 21:26:56 21:31:18 75° 259° (W) 21:36:03 437.365/2234.400
Cosmos 2491 02 Sep 21:45:10 21:53:55 71° 80° (E) 22:02:42 435.465 / 435.565
GOMX 1 02 Sep 21:46:21 21:50:53 82° 260° (W) 21:55:47 467.674
DOVE 4 02 Sep 21:50:51 21:55:26 68° 76° (ENE) 22:00:23 437.250
YUBILEINY 02 Sep 21:51:51 21:59:23 35° 86° (E) 22:07:11 435.215
CUTE 1.7 + AOD 2 02 Sep 21:53:59 21:58:07 49° 74° (ENE) 22:02:16 437.475
PRISM 02 Sep 22:02:21 22:06:27 70° 285° (WNW) 22:10:32 437.425
CUBEBUG 2 02 Sep 22:02:31 22:05:39 19° 66° (ENE) 22:08:59 437.445
UWE-3 02 Sep 22:06:07 22:08:46 16° 65° (ENE) 22:11:37 435.000/436.395/437.385
CANX-2 02 Sep 22:08:07 22:12:24 81° 79° (ENE) 22:16:43 2200.000
HO-68 02 Sep 22:22:10 22:29:20 76° 256° (WSW) 22:36:33 435.675
CINEMA 3 02 Sep 22:22:46 22:27:25 63° 74° (ENE) 22:32:19 145.822/145.860
SEEDS 02 Sep 22:26:15 22:30:31 88° 256° (WSW) 22:34:47 437.485
Oscar 11 02 Sep 22:42:21 22:46:23 39° 72° (ENE) 22:50:28 145.826/435.025
COMPASS 1 02 Sep 22:45:05 22:49:17 69° 259° (W) 22:53:29 437.405
AAUSAT CUBESAT 2 02 Sep 22:53:38 22:57:48 65° 259° (W) 23:01:58 437.432
STRAND 1 02 Sep 22:59:27 23:03:01 19° 295° (WNW) 23:06:25 437.568
DELFI C3 02 Sep 23:04:27 23:08:17 43° 73° (ENE) 23:12:09 145.870
ZACube-1 02 Sep 23:29:00 23:33:34 85° 79° (ENE) 23:38:12 437.345
50 SAT 02 Sep 23:31:38 23:33:31 13° 67° (ENE) 23:35:35 437.505
DOVE 4 02 Sep 23:31:55 23:33:53 12° 274° (W) 23:35:37 437.250
CUTE 1.7 + AOD 2 02 Sep 23:32:04 23:34:22 14° 270° (W) 23:36:27 437.475
RS-15 02 Sep 23:32:25 23:40:48 22° 15° (NNE) 23:49:39 29.354- 29.394
FUNcube-1 02 Sep 23:33:30 23:38:03 89° 257° (WSW) 23:42:42 145.935
VELOX 1 02 Sep 23:36:52 23:39:18 15° 65° (ENE) 23:41:54 145.980
CUBEBUG 2 02 Sep 23:37:30 23:41:59 47° 262° (W) 23:46:35 437.445
UWE-3 02 Sep 23:40:19 23:44:51 56° 261° (W) 23:49:28 435.000/436.395/437.385
Cosmos 2491 02 Sep 23:43:26 23:50:04 24° 278° (W) 23:56:22 435.465 / 435.565
YUBILEINY 02 Sep 23:47:29 23:55:59 50° 285° (WNW) 00:04:29 435.215
TIGRISAT 02 Sep 23:53:58 23:56:01 13° 88° (E) 23:58:16 435.000
HUMSAT D 02 Sep 23:58:13 00:02:31 69° 75° (ENE) 00:06:51 437.325/437.525
CINEMA 3 03 Sep 00:02:47 00:05:11 13° 273° (W) 00:07:22 145.822/145.860
BEESAT 3 03 Sep 00:09:25 00:12:20 19° 45° (NE) 00:15:18 437.485
ANTELSAT 03 Sep 00:10:48 00:14:14 21° 92° (E) 00:17:41 437.575/2403.000
DX 1 03 Sep 00:13:26 00:17:41 59° 74° (ENE) 00:21:59 434.975-435.025
HO-68 03 Sep 00:15:49 00:18:24 12° 275° (W) 00:20:24 435.675
Oscar 11 03 Sep 00:19:45 00:22:46 18° 269° (W) 00:25:38 145.826/435.025
UKube-1 03 Sep 00:22:53 00:27:09 67° 75° (ENE) 00:31:28 .
BEESAT 2 03 Sep 00:24:20 00:27:24 20° 46° (NE) 00:30:30 435.950
NANOSAT C BR1 03 Sep 00:32:01 00:33:21 11° 89° (E) 00:34:55 145.865
QB50P2 03 Sep 00:32:16 00:33:58 12° 89° (E) 00:35:54 145.880/145.840
ESTCUBE 1 03 Sep 00:37:35 00:41:53 49° 73° (ENE) 00:46:14 437.505/2401.250
CUBEBUG 1 03 Sep 00:38:10 00:42:11 40° 72° (ENE) 00:46:16 437.445
DELFI C3 03 Sep 00:41:23 00:43:36 14° 270° (W) 00:45:39 145.870
Cosmos 2504 03 Sep 00:42:56 00:50:51 60° 91° (E) 00:59:16 435.465 / 435.565
AISAT 03 Sep 00:43:22 00:47:47 81° 76° (ENE) 00:52:14 437.250
QB50P1 03 Sep 00:45:19 00:48:06 17° 92° (E) 00:51:01 145.935-145.965
UNISAT 6 03 Sep 01:00:55 01:05:29 77° 102° (ESE) 01:09:55 437.425
50 SAT 03 Sep 01:03:52 01:07:41 46° 261° (W) 01:11:31 437.505
CUSAT 1 03 Sep 01:09:39 01:13:17 34° 89° (E) 01:18:02 437.405
VELOX 1 03 Sep 01:11:10 01:15:27 51° 260° (W) 01:19:47 145.980
AIST 2 03 Sep 01:14:30 01:17:01 16° 42° (NE) 01:19:39 435.215
TISAT 1 03 Sep 01:22:50 01:26:00 21° 68° (ENE) 01:29:16 437.305
AUBIESAT-1 03 Sep 01:26:49 01:30:41 74° 106° (ESE) 01:34:14 437.475
TIGRISAT 03 Sep 01:28:45 01:33:14 55° 286° (WNW) 01:37:34 435.000
M-CUBED/EXP-1 PRIME 03 Sep 01:34:09 01:38:05 73° 290° (WNW) 01:41:40 437.505
RS-15 03 Sep 01:45:40 01:57:02 51° 46° (NE) 02:08:54 29.354- 29.394
BUGSAT 1 03 Sep 01:45:44 01:49:53 49° 99° (E) 01:54:02 437.445
BEESAT 3 03 Sep 01:46:38 01:50:28 42° 243° (WSW) 01:54:12 437.485
POLYITAN 1 03 Sep 01:46:40 01:51:00 88° 103° (ESE) 01:55:17 437.675
ANTELSAT 03 Sep 01:46:59 01:51:08 34° 289° (WNW) 01:55:08 437.575/2403.000
DUCHIFAT 1 03 Sep 01:47:02 01:51:20 83° 102° (ESE) 01:55:36 145.980
POPSAT HIP 1 03 Sep 01:48:25 01:52:46 90° 95° (E) 01:57:03 437.405
DANDE 03 Sep 01:52:29 01:55:56 57° 95° (E) 02:00:36 436.750
DX 1 03 Sep 01:52:41 01:54:23 12° 271° (W) 01:55:51 434.975-435.025
SWISSCUBE 03 Sep 01:59:52 02:01:26 12° 62° (ENE) 02:03:14 437.505
SPROUT 03 Sep 02:01:24 02:05:42 79° 258° (WSW) 02:10:02 437.525
BEESAT 2 03 Sep 02:01:48 02:05:36 39° 244° (WSW) 02:09:19 435.950
NANOSAT C BR1 03 Sep 02:05:23 02:09:37 58° 286° (WNW) 02:13:48 145.865
QB50P2 03 Sep 02:06:03 02:10:16 54° 286° (WNW) 02:14:26 145.880/145.840
CUBEBUG 1 03 Sep 02:15:50 02:18:46 17° 269° (W) 02:21:33 437.445
ESTCUBE 1 03 Sep 02:16:27 02:19:06 15° 270° (W) 02:21:33 437.505/2401.250
QB50P1 03 Sep 02:20:07 02:24:09 39° 288° (WNW) 02:28:08 145.935-145.965
SO-50 03 Sep 02:33:28 02:38:15 89° 122° (ESE) 02:43:12 436.795
Cosmos 2504 03 Sep 02:36:35 02:43:41 30° 292° (WNW) 02:50:51 435.465 / 435.565
ITUPSAT 1 03 Sep 02:36:54 02:40:42 25° 68° (ENE) 02:44:36 437.325
Oscar 19 03 Sep 02:38:23 02:40:27 13° 88° (E) 02:42:51 437.125/150
UNISAT 6 03 Sep 02:40:16 02:41:39 11° 298° (WNW) 02:42:47 437.425
GONETS M04 03 Sep 02:43:30 02:47:31 15° 78° (ENE) 02:52:10
AIST 2 03 Sep 02:51:54 02:56:01 61° 241° (WSW) 03:00:04 435.215
CUSAT 1 03 Sep 02:52:49 02:56:09 21° 297° (WNW) 03:00:05 437.405
TISAT 1 03 Sep 02:57:49 03:01:35 31° 264° (W) 03:05:22 437.305
BEESAT 03 Sep 03:07:49 03:12:25 51° 72° (ENE) 03:17:04 436.000
PCSat 03 Sep 03:15:22 03:20:45 79° 118° (ESE) 03:26:13 145.827
BUGSAT 1 03 Sep 03:22:28 03:24:59 15° 294° (WNW) 03:27:19 437.445
SWISSCUBE 03 Sep 03:33:55 03:38:41 79° 256° (WSW) 03:43:28 437.505
Gurwin Techsat 1B 03 Sep 03:35:40 03:38:19 14° 89° (E) 03:41:14 435.225
DANDE 03 Sep 03:39:10 03:40:09 10° 304° (NW) 03:40:56 436.750
ITAMSAT 1 03 Sep 03:41:56 03:43:52 12° 88° (E) 03:46:09 435.822/435.867
KKS-1 03 Sep 03:46:06 03:49:21 21° 67° (ENE) 03:52:43 437.445
RS-15 03 Sep 03:58:21 04:09:46 53° 248° (WSW) 04:21:19 29.354- 29.394
VERMONT LUNAR 03 Sep 04:02:27 04:04:51 22° 154° (SSE) 04:07:18 437.305
Cosmos 2499 03 Sep 04:04:07 04:06:50 12° 76° (ENE) 04:10:19 435.465 / 435.565
ITUPSAT 1 03 Sep 04:14:06 04:18:27 34° 263° (W) 04:22:47 437.325
Oscar 19 03 Sep 04:15:15 04:20:28 74° 286° (WNW) 04:25:38 437.125/150
SO-50 03 Sep 04:16:34 04:19:34 16° 322° (NW) 04:22:27 436.795
JAS-2 03 Sep 04:29:55 04:35:21 26° 89° (E) 04:40:26 435.910
GONETS M04 03 Sep 04:34:29 04:43:09 83° 96° (E) 04:51:55
BEESAT 03 Sep 04:47:35 04:50:37 16° 269° (W) 04:53:27 436.000
STARS 03 Sep 04:57:03 05:01:26 69° 75° (ENE) 05:05:51 437.465
PCSat 03 Sep 05:01:11 05:04:53 18° 317° (NW) 05:08:26 145.827
Gurwin Techsat 1B 03 Sep 05:13:35 05:18:53 68° 286° (WNW) 05:24:09 435.225
ITAMSAT 1 03 Sep 05:18:51 05:24:03 75° 286° (WNW) 05:29:13 435.822/435.867
KKS-1 03 Sep 05:21:37 05:25:45 37° 263° (W) 05:29:54 437.445
AO-7 03 Sep 05:22:52 05:29:28 27° 93° (E) 05:36:18 29.400- 29.500
PHONESAT 2.4 03 Sep 05:27:51 05:29:04 12° 146° (SSE) 05:30:23 2401.200-2431.200
VERMONT LUNAR 03 Sep 05:38:02 05:41:02 77° 170° (S) 05:44:01 437.305
MOZHAYETS 4 03 Sep 05:49:19 05:53:50 59° 75° (ENE) 05:58:23
Cosmos 2499 03 Sep 05:50:07 05:58:31 70° 93° (E) 06:07:21 435.465 / 435.565
O/OREOS (USA 219) 03 Sep 05:53:13 05:57:39 44° 64° (ENE) 06:02:03 437.305
JAS-2 03 Sep 06:14:12 06:20:54 51° 291° (WNW) 06:26:45 435.910
HORYU 2 03 Sep 06:24:43 06:29:11 68° 102° (ESE) 06:33:35 437.375
GONETS M04 03 Sep 06:34:56 06:41:17 21° 298° (WNW) 06:47:15
STARS 03 Sep 06:37:42 06:38:26 10° 272° (W) 06:38:52 437.465
PHONESAT 2.4 03 Sep 07:03:11 07:06:28 46° 160° (SSE) 07:09:45 2401.200-2431.200
VERMONT LUNAR 03 Sep 07:14:28 07:17:27 86° 3° (N) 07:20:26 437.305
AO-7 03 Sep 07:14:43 07:22:55 65° 292° (WNW) 07:31:03 29.400- 29.500
MOZHAYETS 4 03 Sep 07:29:14 07:31:31 13° 271° (W) 07:33:33
O/OREOS (USA 219) 03 Sep 07:33:39 07:36:45 17° 259° (W) 07:39:39 437.305
Cosmos 2499 03 Sep 07:45:31 07:52:36 26° 295° (WNW) 07:59:36 435.465 / 435.565
CUBESAT XI-V 03 Sep 07:49:20 07:53:55 87° 251° (WSW) 07:58:33 437.345
CUTE-I 03 Sep 07:59:44 08:04:05 26° 94° (E) 08:08:32 437.470
YUBILEINY 03 Sep 08:03:20 08:08:12 16° 58° (ENE) 08:13:35 435.215
HORYU 2 03 Sep 08:03:28 08:05:17 12° 297° (WNW) 08:06:54 437.375
STRAND 1 03 Sep 08:34:26 08:39:30 73° 75° (ENE) 08:44:37 437.568
PHONESAT 2.4 03 Sep 08:40:51 08:44:16 84° 355° (N) 08:47:41 2401.200-2431.200
ISS 03 Sep 08:42:44 08:44:36 15° 131° (SE) 08:46:33 145.825
VERMONT LUNAR 03 Sep 08:50:59 08:53:45 36° 202° (SSW) 08:56:30 437.305
PRISM 03 Sep 08:51:26 08:55:30 78° 76° (ENE) 08:59:37 437.425
Cosmos 2491 03 Sep 08:54:08 08:58:09 15° 78° (ENE) 09:02:48 435.465 / 435.565
Cubesat XI-IV 03 Sep 08:54:46 09:00:08 85° 103° (ESE) 09:05:29 437.490
AO-7 03 Sep 09:10:00 09:14:19 15° 311° (NW) 09:18:13 29.400- 29.500
AIST 1 03 Sep 09:19:37 09:23:39 45° 94° (E) 09:27:44
SO-50 03 Sep 09:26:56 09:29:03 13° 35° (NE) 09:31:18 436.795
BRITE-PL 03 Sep 09:31:27 09:36:42 41° 96° (E) 09:42:05 437.365/2234.400
CUTE-I 03 Sep 09:39:22 09:44:18 39° 290° (WNW) 09:49:11 437.470
GOMX 1 03 Sep 09:48:29 09:53:29 35° 95° (E) 09:58:30 467.674
DOVE 4 03 Sep 09:51:02 09:55:06 23° 91° (E) 09:59:14 437.250
HO-68 03 Sep 09:51:41 09:56:48 21° 91° (E) 10:02:11 435.675
CANX-2 03 Sep 09:55:29 09:57:42 14° 90° (E) 10:00:04 2200.000
YUBILEINY 03 Sep 09:57:54 10:06:48 81° 82° (E) 10:15:36 435.215
SEEDS 03 Sep 10:12:22 10:14:49 16° 91° (E) 10:17:25 437.485
STRAND 1 03 Sep 10:17:08 10:19:22 12° 272° (W) 10:21:17 437.568
ISS 03 Sep 10:17:30 10:20:43 57° 327° (NNW) 10:23:57 145.825
PHONESAT 2.4 03 Sep 10:18:46 10:22:10 71° 193° (SSW) 10:25:33 2401.200-2431.200
CINEMA 3 03 Sep 10:19:32 10:22:43 17° 89° (E) 10:26:02 145.822/145.860
PCSat 03 Sep 10:23:28 10:24:26 11° 35° (NE) 10:25:40 145.827
COMPASS 1 03 Sep 10:29:49 10:32:44 19° 92° (E) 10:35:45 437.405
Cosmos 2504 03 Sep 10:31:49 10:37:12 19° 61° (ENE) 10:42:48 435.465 / 435.565
Cubesat XI-IV 03 Sep 10:37:06 10:39:36 13° 299° (WNW) 10:41:49 437.490
AAUSAT CUBESAT 2 03 Sep 10:37:47 10:40:46 19° 93° (E) 10:43:50 437.432
AUBIESAT-1 03 Sep 10:41:44 10:42:56 11° 58° (ENE) 10:44:23 437.475
Cosmos 2491 03 Sep 10:45:08 10:53:50 83° 95° (E) 11:02:34 435.465 / 435.565
M-CUBED/EXP-1 PRIME 03 Sep 10:47:53 10:50:34 16° 60° (ENE) 10:53:24 437.505
DANDE 03 Sep 10:50:04 10:52:54 12° 58° (ENE) 10:56:25 436.750
TIGRISAT 03 Sep 10:52:37 10:54:39 13° 64° (ENE) 10:56:54 435.000
AIST 1 03 Sep 10:59:15 11:01:38 14° 291° (WNW) 11:03:51
SO-50 03 Sep 11:05:39 11:10:36 69° 56° (ENE) 11:15:24 436.795
ANTELSAT 03 Sep 11:09:19 11:12:38 20° 67° (ENE) 11:16:07 437.575/2403.000
BRITE-PL 03 Sep 11:10:17 11:15:01 28° 292° (WNW) 11:19:44 437.365/2234.400
CUTE 1.7 + AOD 2 03 Sep 11:15:17 11:19:31 76° 284° (WNW) 11:23:42 437.475
ZACube-1 03 Sep 11:19:34 11:22:25 17° 90° (E) 11:25:24 437.345
FUNcube-1 03 Sep 11:23:39 11:26:41 18° 91° (E) 11:29:48 145.935
GOMX 1 03 Sep 11:26:41 11:31:29 31° 291° (WNW) 11:36:13 467.674
DOVE 4 03 Sep 11:27:59 11:33:03 45° 288° (WNW) 11:38:00 437.250
CUBEBUG 2 03 Sep 11:29:20 11:33:41 39° 96° (E) 11:37:56 437.445
CANX-2 03 Sep 11:29:52 11:33:55 45° 286° (WNW) 11:37:55 2200.000
UWE-3 03 Sep 11:31:14 11:35:16 31° 95° (E) 11:39:14 435.000/436.395/437.385
HO-68 03 Sep 11:38:03 11:45:13 69° 289° (WNW) 11:52:20 435.675
QB50P1 03 Sep 11:38:37 11:40:29 13° 65° (ENE) 11:42:34 145.935-145.965
CUSAT 1 03 Sep 11:44:04 11:51:26 42° 72° (ENE) 11:59:09 437.405
HUMSAT D 03 Sep 11:45:10 11:46:25 11° 88° (E) 11:47:53 437.325/437.525
SEEDS 03 Sep 11:46:53 11:50:51 40° 287° (WNW) 11:54:44 437.485
ISS 03 Sep 11:55:40 11:57:41 15° 345° (NNW) 11:59:40 145.825
